Regional Weather Roundup
Issued by NWS

Home | Current Version | Previous Version | Text Only | Print | Product List | Glossary On
Versions: 1 2 3 4 5 6 7 8 9 10 11 12 13 14 15 16 17 18 19 20 21 22 23 24 25 26 27 28 29 30 31 32 33 34 35 36 37 38 39 40 41 42 43 44 45 46 47 48 49 50
000
ASUS43 KOAX 231310
RWRNE

WEATHER ROUNDUP FOR NEBRASKA
NATIONAL WEATHER SERVICE OMAHA NE
800 AM CDT WED MAY 23 2018

NOTES: SATELLITE DATA IS BEING USED TO AUGMENT CLOUD COVER ABOVE
       12000 FEET.
       "FAIR" INDICATES FEW OR NO CLOUDS BELOW 12,000 FEET WITH NO
       SIGNIFICANT WEATHER AND/OR OBSTRUCTIONS TO VISIBILITY.


NEZ001>004-019>022-054>056-231400-
NEBRASKA PANHANDLE

CITY           SKY/WX    TMP DP  RH WIND       PRES   REMARKS
SCOTTSBLUFF    PTSUNNY   54  54 100 CALM      29.99R
ALLIANCE       PTSUNNY   55  55 100 W10       29.97R
CHADRON        CLOUDY    57  56  96 SW10      29.95R
GORDON         FAIR      58  55  91 W7        29.93R
KIMBALL        PTSUNNY   53  52  94 W5        30.04R
SIDNEY         MOSUNNY   57  53  86 NW10      29.99R
$$

NEZ057>060-069>072-079>082-231400-
SOUTHWEST NEBRASKA

CITY           SKY/WX    TMP DP  RH WIND       PRES   REMARKS
NORTH PLATTE   PTSUNNY   66  60  81 SE7       29.98R
IMPERIAL       CLOUDY    65  59  81 SE9       29.97R
LEXINGTON      PTSUNNY   69  62  78 S15       29.99R
MCCOOK         PTSUNNY   66  61  84 S6        29.99R
OGALLALA       CLOUDY    63  57  81 SE5       29.96S
$$

NEZ005>010-023>029-035>040-094-231400-
NORTH CENTRAL NEBRASKA

CITY           SKY/WX    TMP DP  RH WIND       PRES   REMARKS
VALENTINE      PTSUNNY   69  62  78 S7        29.91R
AINSWORTH      PTSUNNY   68  62  79 S14       29.92S
BROKEN BOW     PTSUNNY   68  61  78 SE12      29.98R
O`NEILL        PTSUNNY   71  65  80 S12       29.97S
ORD            PTSUNNY   68  63  84 S9        29.97S
THEDFORD       PTSUNNY   68  59  73 S16       29.95R
$$

NEZ041-046>049-061>064-073>077-083>087-231400-
SOUTH CENTRAL NEBRASKA

CITY           SKY/WX    TMP DP  RH WIND       PRES   REMARKS
GRAND ISLAND   CLOUDY    70  64  81 S12       30.02R
AURORA         CLOUDY    71  66  86 S13       30.03R
HASTINGS       MOSUNNY   69  64  84 SE12G18   30.03R
HEBRON         CLOUDY    71  65  82 S9        30.05R
HOLDREGE       CLOUDY    67  62  84 S10       30.00S
KEARNEY        CLOUDY    71  63  75 S10       30.01R
YORK           PTSUNNY   72  70  94 S13       30.04R
$$

NEZ011>018-030>034-042>045-231400-
NORTHEAST NEBRASKA

CITY           SKY/WX    TMP DP  RH WIND       PRES   REMARKS
NORFOLK        MOSUNNY   72  66  81 SE12      29.99F
ALBION         CLOUDY    70  65  86 S8        30.01S
BLAIR          SUNNY     71  65  81 S10       30.05S
COLUMBUS       SUNNY     73  65  75 MISG      30.02R
FREMONT        SUNNY     73  66  80 SE8       30.04S
TEKAMAH        SUNNY     69  65  86 SE9       30.04R
WAYNE          MOSUNNY   69  68  96 S13       30.01S
$$

NEZ050>053-065>068-078-088>093-231400-
SOUTHEAST NEBRASKA

CITY           SKY/WX    TMP DP  RH WIND       PRES   REMARKS
LINCOLN        SUNNY     73  66  78 S9        30.05R
OMAHA EPPLEY   MOSUNNY   72  65  78 S8        30.05R
BEATRICE       PTSUNNY   74  67  80 S9        30.06R
FALLS CITY     MOSUNNY   71  65  81 S8        30.07R
NEBRASKA CITY  SUNNY     72  70  93 S10       30.07R
PLATTSMOUTH    SUNNY     71  66  83 S10       30.06S
$$

NEZ044-045-051>053-067-231400-
OMAHA AREA

CITY           SKY/WX    TMP DP  RH WIND       PRES   REMARKS
OMAHA EPPLEY   MOSUNNY   72  65  78 S8        30.05R
BLAIR          SUNNY     71  65  81 S10       30.05S
FREMONT        SUNNY     73  66  80 SE8       30.04S
MILLARD        SUNNY     72  67  83 SE8       30.06R
OFFUTT AFB     SUNNY     71  66  84 SE8       30.05R
PLATTSMOUTH    SUNNY     71  66  83 S10       30.06S
WAHOO          FAIR      71  65  82 SE10      30.05R
$$



USA.gov is the U.S. government's official web portal to all federal, state and local government web resources and services.